Regional Weather Roundup
Issued by NWS

Home | Current Version | Previous Version | Graphics & Text | Print | Product List | Glossary On
Versions: 1 2 3 4 5 6 7 8 9 10 11 12 13 14 15 16 17 18 19 20 21 22 23 24 25 26 27 28 29 30 31 32 33 34 35 36 37 38 39 40 41 42 43 44 45 46 47 48 49 50
000
ASUS43 KLOT 301200
RWRIL

ILLINOIS REGIONAL WEATHER ROUNDUP
NATIONAL WEATHER SERVICE CHICAGO/ROMEOVILLE IL
600 AM CST FRI JAN 30 2015

NOTE: "FAIR" INDICATES FEW OR NO CLOUDS BELOW 12,000 FEET WITH NO
SIGNIFICANT WEATHER AND/OR OBSTRUCTIONS TO VISIBILITY.

* THESE STATIONS ARE NOT UNDER NWS QUALITY CONTROL. THEY ALSO MAY NOT
  REPORT WEATHER SUCH AS PRECIPITATION OR FOG.

ILZ001-002-007-009-015-016-024-301300-
NORTHWEST ILLINOIS

CITY           SKY/WX    TMP DP  RH WIND       PRES   REMARKS
MOLINE         CLEAR     20  11  68 N6        30.52R WCI  12
6HR MIN TEMP:  20; 6HR MAX TEMP:  27;

STERLING*      CLEAR     19  10  68 N8        30.50R WCI   9
$$

ILZ003-004-008-010-011-017-018-301300-
NORTH CENTRAL ILLINOIS

CITY           SKY/WX    TMP DP  RH WIND       PRES   REMARKS
ROCKFORD       CLEAR     19   8  62 N9        30.51R WCI   8
6HR MIN TEMP:  19; 6HR MAX TEMP:  29; 6HR PCP: TRACE;

$$

ILZ005-006-012>014-019>023-301300-
NORTHEAST ILLINOIS

CITY           SKY/WX    TMP DP  RH WIND       PRES   REMARKS
CHICAGO-OHARE  PTCLDY    21   9  59 N13       30.46R WCI   9
6HR MIN TEMP:  21; 6HR MAX TEMP:  29; 6HR PCP: TRACE;

CHICAGO-MIDWAY PTCLDY    24   9  52 NW13      30.46R WCI  12
6HR MIN TEMP:  24; 6HR MAX TEMP:  32; 6HR PCP: TRACE;

AURORA         CLOUDY    23  16  74 NW14      30.47R WCI  11
6HR MIN TEMP:  20; 6HR MAX TEMP:  30;

WAUKEGAN       FAIR      18   9  68 NW6       30.46R WCI  10
6HR MIN TEMP:  18; 6HR MAX TEMP:  27;

DUPAGE AIRPORT CLOUDY    23  10  57 N12       30.46R WCI  12
6HR MIN TEMP:  22; 6HR MAX TEMP:  29; 6HR PCP: TRACE;

WHEELING       CLEAR     21   8  57 N10       30.48R WCI  10
6HR MIN TEMP:  21; 6HR MAX TEMP:  29;

NORTHERLY ISL    N/A     25  10  53 NW13        N/A  WCI  14
$$

LMZ740>746-301300-
SOUTHERN LAKE MICHIGAN

STATION/POSITION SKY/WX   TEMP    WIND        PRES    VSBY  WAVE
                          AIR SEA DIR/SP/G                  HT/PER
                          (F)     (DEG/KT/KT) (MB)    (MI)  (FT/S)
WAUKEGAN HARBOR            21     320/  9/ 14   N/A
HARRISON CRIB              25     330/ 21/ 25   N/A
BURNHAM HARBOR             25     320/ 10/ 18   N/A
CALUMET HARBOR             25     300/  8/ 12   N/A
MICHIGAN CITY              27     340/ 26/ 31   N/A
$$

ILZ025>027-034>036-040-047-049-050-058-095>099-301300-
WEST-CENTRAL ILLINOIS

CITY           SKY/WX    TMP DP  RH WIND       PRES   REMARKS
QUINCY         CLEAR     22  16  78 N7        30.53R WCI  13
$$

ILZ028>032-037-038-041>044-048-051>054-059>061-301300-
CENTRAL ILLINOIS

CITY           SKY/WX    TMP DP  RH WIND       PRES   REMARKS
DECATUR        CLEAR     27  19  72 NW14      30.47R WCI  16
PEORIA         CLEAR     24  16  71 VRB6      30.50R WCI  17
6HR MIN TEMP:  24; 6HR MAX TEMP:  32;

SPRINGFIELD    CLEAR     25  18  74 NW9       30.50R WCI  15
6HR MIN TEMP:  25; 6HR MAX TEMP:  34;

TAYLORVILLE    NOT AVBL
$$

ILZ033-039-045-046-055>057-062-063-301300-
EAST-CENTRAL ILLINOIS

CITY           SKY/WX    TMP DP  RH WIND       PRES   REMARKS
CHAMPAIGN      CLEAR     25  19  78 NW13      30.46R WCI  14
MATTOON        CLEAR     27  20  75 N16       30.45R WCI  15
$$

ILZ079-100>102-301300-
SOUTHWEST ILLINOIS

CITY           SKY/WX    TMP DP  RH WIND       PRES   REMARKS
BELLEVILLE     MOCLDY    28  20  70 NW10      30.51R WCI  19
CAHOKIA*       MOCLDY    30  20  66 N13       30.52R WCI  20
$$

ILZ064>066-069>071-074>076-080>082-084>086-088>090-092>094-301300-
SOUTH-CENTRAL ILLINOIS

CITY           SKY/WX    TMP DP  RH WIND       PRES   REMARKS
CARBONDALE     CLOUDY    32  21  64 NW10      30.50R WCI  24
6HR MIN TEMP:  32; 6HR MAX TEMP:  36;

MT. VERNON     CLOUDY    32  19  59 NW3       30.48R
$$

ILZ067-068-072-073-078-083-087-091-301300-
SOUTHEAST ILLINOIS

CITY           SKY/WX    TMP DP  RH WIND       PRES   REMARKS
LAWRENCEVILLE  PTCLDY    31  23  72 NW14      30.45R WCI  21
$$

ABBREVIATIONS USED IN REMARKS
   TC - TEMPERATURE IN CELSIUS
  WCI - WIND CHILL INDEX
   HX - HEAT INDEX
  VSB - VISIBILITY
$$



USA.gov is the U.S. government's official web portal to all federal, state and local government web resources and services.